Time,TemperatureF,DewpointF,PressureIn,WindDirection,WindDirectionDegrees,WindSpeedMPH,WindSpeedGustMPH,Humidity,HourlyPrecipIn,Conditions,Clouds,dailyrainin,SolarRadiationWatts/m^2,SoftwareType,DateUTC
2013-07-14 00:02:00,66.9,60.6,30.00,SE,136,0.0,1.0,64,0.00,,,0.02,0.0,meteohub,2013-07-14 04:02:00,
2013-07-14 00:07:00,66.9,60.3,30.00,ESE,117,1.0,1.0,63,0.00,,,0.00,0.0,meteohub,2013-07-14 04:07:00,
2013-07-14 00:12:00,66.9,60.6,30.00,ESE,102,0.0,2.0,64,0.00,,,0.00,0.0,meteohub,2013-07-14 04:12:00,
2013-07-14 00:17:00,66.9,61.2,30.00,ESE,105,0.0,5.0,65,0.00,,,0.00,0.0,meteohub,2013-07-14 04:17:00,
2013-07-14 00:22:00,67.1,61.2,30.00,ESE,107,0.0,5.0,65,0.00,,,0.00,0.0,meteohub,2013-07-14 04:22:00,
2013-07-14 00:27:00,67.3,61.2,30.00,SE,125,1.0,5.0,65,0.00,,,0.00,0.0,meteohub,2013-07-14 04:27:00,
2013-07-14 00:32:00,67.3,61.2,30.00,SE,129,0.0,3.0,65,0.00,,,0.00,0.0,meteohub,2013-07-14 04:32:00,
2013-07-14 00:37:00,67.3,61.2,30.00,SE,127,1.0,3.0,65,0.00,,,0.00,0.0,meteohub,2013-07-14 04:37:00,
2013-07-14 00:42:00,67.5,60.6,30.00,East,101,0.0,5.0,64,0.00,,,0.00,0.0,meteohub,2013-07-14 04:42:00,
2013-07-14 00:47:00,67.5,60.6,30.00,SE,135,0.0,5.0,64,0.00,,,0.00,0.0,meteohub,2013-07-14 04:47:00,
2013-07-14 00:52:00,67.5,61.2,30.01,SE,128,1.0,5.0,65,0.00,,,0.00,0.0,meteohub,2013-07-14 04:52:00,
2013-07-14 00:57:00,67.5,61.2,30.00,ESE,110,1.0,5.0,65,0.00,,,0.00,0.0,meteohub,2013-07-14 04:57:00,
2013-07-14 01:02:00,67.5,61.2,30.00,ESE,110,0.0,5.0,65,0.00,,,0.00,0.0,meteohub,2013-07-14 05:02:00,
2013-07-14 01:07:00,67.5,61.2,30.00,ESE,110,0.0,3.0,65,0.00,,,0.00,0.0,meteohub,2013-07-14 05:07:00,
2013-07-14 01:12:00,67.3,60.3,30.01,ESE,110,0.0,3.0,63,0.00,,,0.00,0.0,meteohub,2013-07-14 05:12:00,
2013-07-14 01:17:00,67.3,60.6,30.00,ESE,107,2.0,2.0,64,0.00,,,0.00,0.0,meteohub,2013-07-14 05:17:00,
2013-07-14 01:22:00,67.3,61.2,30.00,ESE,109,1.0,5.0,65,0.00,,,0.00,0.0,meteohub,2013-07-14 05:22:00,
2013-07-14 01:27:00,67.1,61.2,30.00,ESE,123,3.0,5.0,65,0.00,,,0.00,0.0,meteohub,2013-07-14 05:27:00,
2013-07-14 01:32:00,66.9,61.2,30.00,ESE,116,1.0,5.0,65,0.00,,,0.00,0.0,meteohub,2013-07-14 05:32:00,
2013-07-14 01:37:00,66.9,61.2,30.00,ESE,121,0.0,5.0,65,0.00,,,0.00,0.0,meteohub,2013-07-14 05:37:00,
2013-07-14 01:42:00,66.7,61.2,30.00,SE,135,1.0,5.0,65,0.00,,,0.00,0.0,meteohub,2013-07-14 05:42:00,
2013-07-14 01:47:00,66.7,60.3,30.00,ESE,116,0.0,5.0,63,0.00,,,0.00,0.0,meteohub,2013-07-14 05:47:00,
2013-07-14 01:52:00,66.7,60.6,30.00,ESE,116,0.0,5.0,64,0.01,,,0.01,0.0,meteohub,2013-07-14 05:52:00,
2013-07-14 01:57:00,66.7,60.6,30.00,ESE,116,0.0,4.0,64,0.01,,,0.01,0.0,meteohub,2013-07-14 05:57:00,
2013-07-14 02:02:00,66.7,61.2,30.00,ESE,116,0.0,2.0,65,0.02,,,0.02,0.0,meteohub,2013-07-14 06:02:00,
2013-07-14 02:07:00,66.7,61.2,30.00,ESE,116,0.0,2.0,65,0.03,,,0.03,0.0,meteohub,2013-07-14 06:07:00,
2013-07-14 02:12:00,66.7,61.2,30.00,SSE,149,0.0,2.0,65,0.03,,,0.03,0.0,meteohub,2013-07-14 06:12:00,
2013-07-14 02:17:00,66.7,61.2,30.00,SE,135,1.0,3.0,65,0.04,,,0.04,0.0,meteohub,2013-07-14 06:17:00,
2013-07-14 02:22:00,66.7,61.2,30.00,ESE,115,3.0,3.0,65,0.04,,,0.04,0.0,meteohub,2013-07-14 06:22:00,
2013-07-14 02:27:00,66.7,60.6,30.00,ESE,115,1.0,3.0,64,0.04,,,0.04,0.0,meteohub,2013-07-14 06:27:00,
2013-07-14 02:32:00,66.7,60.6,30.00,ESE,104,2.0,4.0,64,0.04,,,0.04,0.0,meteohub,2013-07-14 06:32:00,
2013-07-14 02:37:00,66.7,61.2,30.00,ESE,110,1.0,7.0,65,0.04,,,0.04,0.0,meteohub,2013-07-14 06:37:00,
2013-07-14 02:42:00,66.7,61.2,30.00,ESE,114,2.0,7.0,65,0.04,,,0.04,0.0,meteohub,2013-07-14 06:42:00,
2013-07-14 02:47:00,66.7,61.2,30.00,SE,128,0.0,7.0,65,0.04,,,0.04,0.0,meteohub,2013-07-14 06:47:00,
2013-07-14 02:52:00,66.7,61.2,29.99,ESE,115,1.0,4.0,65,0.03,,,0.04,0.0,meteohub,2013-07-14 06:52:00,
2013-07-14 02:57:00,66.7,60.6,30.00,East,90,1.0,4.0,64,0.03,,,0.04,0.0,meteohub,2013-07-14 06:57:00,
2013-07-14 03:02:00,66.7,60.6,29.99,SE,140,0.0,4.0,64,0.02,,,0.04,0.0,meteohub,2013-07-14 07:02:00,
2013-07-14 03:07:00,66.7,60.6,30.00,East,94,0.0,3.0,64,0.01,,,0.04,0.0,meteohub,2013-07-14 07:07:00,
2013-07-14 03:12:00,66.7,61.2,29.99,SE,126,2.0,3.0,65,0.01,,,0.04,0.0,meteohub,2013-07-14 07:12:00,
2013-07-14 03:17:00,66.7,61.2,29.99,ESE,110,2.0,5.0,65,0.00,,,0.04,0.0,meteohub,2013-07-14 07:17:00,
2013-07-14 03:22:00,66.7,61.2,29.99,ESE,113,0.0,5.0,65,0.00,,,0.04,0.0,meteohub,2013-07-14 07:22:00,
2013-07-14 03:27:00,66.7,61.2,29.99,ESE,114,0.0,3.0,65,0.00,,,0.04,0.0,meteohub,2013-07-14 07:27:00,
2013-07-14 03:32:00,66.7,60.6,29.99,ESE,114,2.0,3.0,64,0.00,,,0.04,0.0,meteohub,2013-07-14 07:32:00,
2013-07-14 03:37:00,66.7,60.6,29.99,ESE,120,2.0,3.0,64,0.00,,,0.04,0.0,meteohub,2013-07-14 07:37:00,
2013-07-14 03:42:00,66.7,60.6,29.99,ESE,119,0.0,3.0,64,0.00,,,0.04,0.0,meteohub,2013-07-14 07:42:00,
2013-07-14 03:47:00,66.7,61.2,29.99,ESE,119,1.0,3.0,65,0.00,,,0.04,0.0,meteohub,2013-07-14 07:47:00,
2013-07-14 03:52:00,66.7,61.2,29.99,SE,130,0.0,3.0,65,0.00,,,0.04,0.0,meteohub,2013-07-14 07:52:00,
2013-07-14 03:57:00,66.7,61.5,29.99,ESE,111,1.0,5.0,66,0.00,,,0.04,0.0,meteohub,2013-07-14 07:57:00,
2013-07-14 04:02:00,66.9,61.5,29.99,ESE,109,2.0,5.0,66,0.00,,,0.04,0.0,meteohub,2013-07-14 08:02:00,
2013-07-14 04:07:00,66.9,61.2,29.99,East,100,2.0,5.0,65,0.00,,,0.04,0.0,meteohub,2013-07-14 08:07:00,
2013-07-14 04:12:00,66.9,60.6,29.99,ESE,109,1.0,4.0,64,0.00,,,0.04,0.0,meteohub,2013-07-14 08:12:00,
2013-07-14 04:17:00,66.7,60.6,29.99,ESE,112,0.0,3.0,64,0.00,,,0.04,0.0,meteohub,2013-07-14 08:17:00,
2013-07-14 04:22:00,66.7,61.2,29.99,ESE,117,0.0,3.0,65,0.00,,,0.04,0.0,meteohub,2013-07-14 08:22:00,
2013-07-14 04:27:00,66.7,61.2,29.99,East,100,2.0,3.0,65,0.00,,,0.04,0.0,meteohub,2013-07-14 08:27:00,
2013-07-14 04:32:00,66.7,61.5,30.00,SE,131,2.0,3.0,66,0.00,,,0.04,0.0,meteohub,2013-07-14 08:32:00,
2013-07-14 04:37:00,66.7,60.6,29.99,ESE,120,0.0,3.0,64,0.00,,,0.04,0.0,meteohub,2013-07-14 08:37:00,
2013-07-14 04:42:00,66.7,60.6,29.99,SE,130,2.0,3.0,64,0.00,,,0.04,0.0,meteohub,2013-07-14 08:42:00,
2013-07-14 04:47:00,66.7,61.2,30.00,SE,126,2.0,5.0,65,0.00,,,0.04,0.0,meteohub,2013-07-14 08:47:00,
2013-07-14 04:52:00,66.7,61.5,30.00,SE,140,1.0,5.0,66,0.00,,,0.04,0.0,meteohub,2013-07-14 08:52:00,
2013-07-14 04:57:00,66.9,61.5,30.00,ESE,104,1.0,5.0,66,0.00,,,0.04,0.0,meteohub,2013-07-14 08:57:00,
2013-07-14 05:02:00,66.9,61.5,30.00,SE,144,0.0,5.0,66,0.00,,,0.04,0.0,meteohub,2013-07-14 09:02:00,
2013-07-14 05:07:00,66.9,60.6,30.00,ESE,103,1.0,5.0,64,0.00,,,0.04,0.0,meteohub,2013-07-14 09:07:00,
2013-07-14 05:12:00,67.1,60.6,30.00,ESE,121,2.0,5.0,64,0.00,,,0.04,0.0,meteohub,2013-07-14 09:12:00,
2013-07-14 05:17:00,67.1,61.2,30.01,SE,146,3.0,7.0,65,0.00,,,0.04,0.0,meteohub,2013-07-14 09:17:00,
2013-07-14 05:22:00,67.1,61.2,30.01,SE,132,4.0,7.0,65,0.00,,,0.04,0.0,meteohub,2013-07-14 09:22:00,
2013-07-14 05:27:00,67.1,61.5,30.01,SE,134,1.0,7.0,66,0.00,,,0.04,0.0,meteohub,2013-07-14 09:27:00,
2013-07-14 05:32:00,67.3,61.5,30.01,SSE,147,5.0,8.0,66,0.00,,,0.04,0.0,meteohub,2013-07-14 09:32:00,
2013-07-14 05:37:00,67.3,61.5,30.01,SE,142,2.0,8.0,66,0.00,,,0.04,0.0,meteohub,2013-07-14 09:37:00,
2013-07-14 05:42:00,67.3,60.6,30.01,SE,140,6.0,10.0,64,0.00,,,0.04,0.0,meteohub,2013-07-14 09:42:00,
2013-07-14 05:47:00,67.3,60.6,30.01,East,84,5.0,10.0,64,0.00,,,0.04,0.0,meteohub,2013-07-14 09:47:00,
2013-07-14 05:52:00,67.3,61.2,30.01,SE,126,7.0,10.0,65,0.00,,,0.04,0.0,meteohub,2013-07-14 09:52:00,
2013-07-14 05:57:00,67.3,61.5,30.01,ESE,121,7.0,11.0,66,0.00,,,0.04,0.0,meteohub,2013-07-14 09:57:00,
2013-07-14 06:02:00,67.1,61.5,30.01,SE,137,1.0,11.0,66,0.00,,,0.04,0.0,meteohub,2013-07-14 10:02:00,
2013-07-14 06:07:00,67.1,61.5,30.01,ESE,103,2.0,11.0,66,0.00,,,0.04,0.0,meteohub,2013-07-14 10:07:00,
2013-07-14 06:12:00,66.9,60.6,30.02,SE,133,6.0,9.0,64,0.00,,,0.04,0.0,meteohub,2013-07-14 10:12:00,
2013-07-14 06:17:00,66.9,60.6,30.02,ESE,105,3.0,10.0,64,0.00,,,0.04,0.0,meteohub,2013-07-14 10:17:00,
2013-07-14 06:22:00,66.9,61.2,30.02,SE,134,4.0,10.0,65,0.00,,,0.04,0.0,meteohub,2013-07-14 10:22:00,
2013-07-14 06:27:00,66.9,61.2,30.02,SSE,159,0.0,10.0,65,0.00,,,0.04,0.0,meteohub,2013-07-14 10:27:00,
2013-07-14 06:32:00,67.1,61.5,30.03,SE,128,5.0,6.0,66,0.00,,,0.04,0.0,meteohub,2013-07-14 10:32:00,
2013-07-14 06:37:00,67.1,61.5,30.03,ESE,113,2.0,7.0,66,0.00,,,0.04,0.0,meteohub,2013-07-14 10:37:00,
2013-07-14 06:42:00,67.3,61.5,30.03,SSE,156,1.0,7.0,66,0.00,,,0.04,0.0,meteohub,2013-07-14 10:42:00,
2013-07-14 06:47:00,67.3,61.2,30.04,SE,130,7.0,8.0,65,0.00,,,0.04,5.0,meteohub,2013-07-14 10:47:00,
2013-07-14 06:52:00,67.3,60.6,30.04,ESE,110,1.0,10.0,64,0.00,,,0.04,5.0,meteohub,2013-07-14 10:52:00,
2013-07-14 06:57:00,67.3,60.6,30.04,ESE,106,3.0,10.0,64,0.00,,,0.04,5.0,meteohub,2013-07-14 10:57:00,
2013-07-14 07:02:00,67.3,61.2,30.04,SE,142,1.0,10.0,65,0.00,,,0.04,5.0,meteohub,2013-07-14 11:02:00,
2013-07-14 07:07:00,67.3,61.5,30.04,SSE,151,0.0,7.0,66,0.00,,,0.04,7.0,meteohub,2013-07-14 11:07:00,
2013-07-14 07:12:00,67.3,61.5,30.05,SE,128,0.0,7.0,66,0.01,,,0.05,5.0,meteohub,2013-07-14 11:12:00,
2013-07-14 07:17:00,67.3,61.5,30.05,East,96,0.0,7.0,66,0.01,,,0.05,12.0,meteohub,2013-07-14 11:17:00,
2013-07-14 07:22:00,67.1,61.5,30.05,East,92,1.0,4.0,66,0.01,,,0.05,11.0,meteohub,2013-07-14 11:22:00,
2013-07-14 07:27:00,66.9,61.2,30.05,ESE,105,1.0,4.0,65,0.01,,,0.05,7.0,meteohub,2013-07-14 11:27:00,
2013-07-14 07:32:00,66.7,60.6,30.05,East,100,0.0,4.0,64,0.01,,,0.05,16.0,meteohub,2013-07-14 11:32:00,
2013-07-14 07:37:00,66.7,60.6,30.05,East,97,1.0,7.0,64,0.01,,,0.05,26.0,meteohub,2013-07-14 11:37:00,
2013-07-14 07:42:00,66.7,61.2,30.06,ESE,117,0.0,7.0,65,0.01,,,0.05,77.0,meteohub,2013-07-14 11:42:00,
2013-07-14 07:47:00,66.9,61.5,30.06,ESE,121,0.0,4.0,66,0.01,,,0.05,86.0,meteohub,2013-07-14 11:47:00,
2013-07-14 07:52:00,67.3,61.5,30.06,ESE,113,0.0,4.0,66,0.02,,,0.06,128.0,meteohub,2013-07-14 11:52:00,
2013-07-14 07:57:00,67.5,61.5,30.06,SE,137,2.0,4.0,66,0.02,,,0.06,151.0,meteohub,2013-07-14 11:57:00,
2013-07-14 08:02:00,67.6,61.5,30.06,SE,136,7.0,7.0,66,0.02,,,0.06,114.0,meteohub,2013-07-14 12:02:00,
2013-07-14 08:07:00,67.6,61.2,30.06,SSE,147,4.0,8.0,65,0.01,,,0.06,49.0,meteohub,2013-07-14 12:07:00,
2013-07-14 08:12:00,67.6,60.6,30.06,ESE,121,0.0,8.0,64,0.01,,,0.06,97.0,meteohub,2013-07-14 12:12:00,
2013-07-14 08:17:00,67.8,60.6,30.06,ESE,122,2.0,8.0,64,0.01,,,0.06,109.0,meteohub,2013-07-14 12:17:00,
2013-07-14 08:22:00,67.8,61.2,30.06,East,97,1.0,7.0,65,0.01,,,0.06,62.0,meteohub,2013-07-14 12:22:00,
2013-07-14 08:27:00,68.0,61.5,30.06,ESE,116,0.0,7.0,66,0.01,,,0.06,90.0,meteohub,2013-07-14 12:27:00,
2013-07-14 08:32:00,68.2,61.5,30.07,ESE,119,2.0,7.0,66,0.01,,,0.06,100.0,meteohub,2013-07-14 12:32:00,
2013-07-14 08:37:00,68.2,61.5,30.07,SSE,159,2.0,7.0,66,0.01,,,0.06,121.0,meteohub,2013-07-14 12:37:00,
2013-07-14 08:42:00,68.4,61.2,30.07,SE,138,2.0,7.0,65,0.01,,,0.06,116.0,meteohub,2013-07-14 12:42:00,
2013-07-14 08:47:00,68.4,61.2,30.08,SE,146,0.0,7.0,65,0.00,,,0.06,86.0,meteohub,2013-07-14 12:47:00,
2013-07-14 08:52:00,68.5,61.2,30.08,East,100,3.0,6.0,65,0.00,,,0.06,120.0,meteohub,2013-07-14 12:52:00,
2013-07-14 08:57:00,68.5,61.5,30.08,SE,139,3.0,6.0,66,0.00,,,0.06,100.0,meteohub,2013-07-14 12:57:00,
2013-07-14 09:02:00,68.5,61.5,30.08,SSE,152,1.0,5.0,66,0.00,,,0.06,97.0,meteohub,2013-07-14 13:02:00,
2013-07-14 09:07:00,68.5,61.5,30.08,SE,126,2.0,8.0,66,0.00,,,0.06,102.0,meteohub,2013-07-14 13:07:00,
2013-07-14 09:12:00,68.5,60.6,30.08,SSE,155,4.0,8.0,64,0.00,,,0.06,125.0,meteohub,2013-07-14 13:12:00,
2013-07-14 09:17:00,68.5,60.6,30.08,SSE,153,3.0,8.0,64,0.00,,,0.06,197.0,meteohub,2013-07-14 13:17:00,
2013-07-14 09:22:00,68.5,61.2,30.08,SE,133,4.0,4.0,65,0.00,,,0.06,160.0,meteohub,2013-07-14 13:22:00,
2013-07-14 09:27:00,68.4,61.5,30.08,ESE,121,3.0,7.0,66,0.00,,,0.06,172.0,meteohub,2013-07-14 13:27:00,
2013-07-14 09:32:00,68.4,61.5,30.08,East,101,2.0,7.0,66,0.00,,,0.06,149.0,meteohub,2013-07-14 13:32:00,
2013-07-14 09:37:00,68.4,61.5,30.08,SE,140,2.0,6.0,66,0.00,,,0.06,128.0,meteohub,2013-07-14 13:37:00,
2013-07-14 09:42:00,68.4,61.5,30.08,SE,128,0.0,10.0,66,0.00,,,0.06,199.0,meteohub,2013-07-14 13:42:00,
2013-07-14 09:47:00,68.7,60.6,30.09,SE,138,4.0,10.0,64,0.00,,,0.06,163.0,meteohub,2013-07-14 13:47:00,
2013-07-14 09:52:00,68.7,60.6,30.08,SE,132,2.0,10.0,64,0.00,,,0.06,125.0,meteohub,2013-07-14 13:52:00,
2013-07-14 09:57:00,68.7,61.2,30.08,ESE,123,2.0,7.0,65,0.00,,,0.06,105.0,meteohub,2013-07-14 13:57:00,
2013-07-14 10:02:00,68.7,61.5,30.08,SE,140,6.0,7.0,66,0.00,,,0.06,125.0,meteohub,2013-07-14 14:02:00,
2013-07-14 10:07:00,68.4,61.5,30.09,SE,125,0.0,7.0,66,0.00,,,0.06,107.0,meteohub,2013-07-14 14:07:00,
2013-07-14 10:12:00,67.8,61.5,30.09,ESE,113,2.0,8.0,66,0.00,,,0.06,93.0,meteohub,2013-07-14 14:12:00,
2013-07-14 10:17:00,67.8,61.2,30.09,ESE,111,2.0,8.0,65,0.00,,,0.06,128.0,meteohub,2013-07-14 14:17:00,
2013-07-14 10:22:00,67.6,61.2,30.09,East,100,1.0,5.0,65,0.01,,,0.07,144.0,meteohub,2013-07-14 14:22:00,
2013-07-14 10:27:00,67.6,61.2,30.09,ESE,118,4.0,6.0,65,0.02,,,0.08,227.0,meteohub,2013-07-14 14:27:00,
2013-07-14 10:32:00,67.6,61.5,30.09,ENE,76,3.0,8.0,66,0.03,,,0.09,206.0,meteohub,2013-07-14 14:32:00,
2013-07-14 10:37:00,67.8,61.5,30.09,SE,127,8.0,11.0,66,0.03,,,0.09,244.0,meteohub,2013-07-14 14:37:00,
2013-07-14 10:42:00,68.0,61.5,30.09,ESE,119,0.0,11.0,66,0.03,,,0.09,248.0,meteohub,2013-07-14 14:42:00,
2013-07-14 10:47:00,68.4,61.5,30.09,ESE,115,0.0,9.0,66,0.03,,,0.09,271.0,meteohub,2013-07-14 14:47:00,
2013-07-14 10:52:00,68.7,60.6,30.09,NE,56,3.0,9.0,64,0.03,,,0.09,255.0,meteohub,2013-07-14 14:52:00,
2013-07-14 10:57:00,68.7,61.2,30.09,SE,126,0.0,9.0,65,0.03,,,0.09,195.0,meteohub,2013-07-14 14:57:00,
2013-07-14 11:07:00,68.5,61.5,30.09,ESE,123,7.0,11.0,66,0.03,,,0.09,281.0,meteohub,2013-07-14 15:07:00,
2013-07-14 11:12:00,68.5,61.5,30.10,East,84,0.0,11.0,66,0.03,,,0.09,374.0,meteohub,2013-07-14 15:12:00,
2013-07-14 11:17:00,68.7,61.5,30.10,SSE,147,5.0,11.0,66,0.02,,,0.09,214.0,meteohub,2013-07-14 15:17:00,
2013-07-14 11:22:00,68.5,61.5,30.10,SSE,151,6.0,10.0,66,0.03,,,0.10,190.0,meteohub,2013-07-14 15:22:00,
2013-07-14 11:27:00,68.4,60.6,30.10,South,180,2.0,10.0,64,0.02,,,0.10,186.0,meteohub,2013-07-14 15:27:00,
2013-07-14 11:32:00,68.2,61.2,30.11,ESE,120,7.0,10.0,65,0.02,,,0.11,169.0,meteohub,2013-07-14 15:32:00,
2013-07-14 11:37:00,68.2,61.5,30.11,SSE,151,6.0,10.0,66,0.02,,,0.11,179.0,meteohub,2013-07-14 15:37:00,
2013-07-14 11:42:00,68.2,61.5,30.11,SE,138,5.0,10.0,66,0.02,,,0.11,121.0,meteohub,2013-07-14 15:42:00,
2013-07-14 11:47:00,68.0,61.5,30.11,SSE,163,4.0,10.0,66,0.02,,,0.11,156.0,meteohub,2013-07-14 15:47:00,
2013-07-14 11:52:00,68.0,61.5,30.12,ESE,102,1.0,11.0,66,0.02,,,0.11,120.0,meteohub,2013-07-14 15:52:00,
2013-07-14 11:57:00,67.8,60.6,30.12,SSE,159,4.0,11.0,64,0.02,,,0.11,135.0,meteohub,2013-07-14 15:57:00,
2013-07-14 12:02:00,67.8,61.2,30.12,ENE,68,2.0,11.0,65,0.02,,,0.11,276.0,meteohub,2013-07-14 16:02:00,
2013-07-14 12:07:00,68.2,61.5,30.12,SSE,160,1.0,8.0,66,0.03,,,0.12,209.0,meteohub,2013-07-14 16:07:00,
2013-07-14 12:12:00,68.4,61.5,30.12,ENE,67,0.0,8.0,66,0.03,,,0.12,160.0,meteohub,2013-07-14 16:12:00,
2013-07-14 12:22:00,68.5,61.5,30.12,ESE,103,2.0,6.0,66,0.02,,,0.12,165.0,meteohub,2013-07-14 16:22:00,
2013-07-14 12:27:00,68.4,61.5,30.12,ENE,63,7.0,8.0,66,0.02,,,0.12,234.0,meteohub,2013-07-14 16:27:00,
2013-07-14 12:32:00,68.5,60.6,30.12,South,177,0.0,9.0,64,0.01,,,0.12,315.0,meteohub,2013-07-14 16:32:00,
2013-07-14 12:37:00,69.1,60.6,30.11,SSE,159,6.0,9.0,64,0.01,,,0.12,276.0,meteohub,2013-07-14 16:37:00,
2013-07-14 12:42:00,69.6,61.2,30.11,South,184,3.0,9.0,65,0.01,,,0.12,181.0,meteohub,2013-07-14 16:42:00,
2013-07-14 12:47:00,69.6,61.2,30.11,East,81,2.0,7.0,65,0.01,,,0.12,107.0,meteohub,2013-07-14 16:47:00,
2013-07-14 12:52:00,69.8,61.5,30.11,SE,140,3.0,7.0,66,0.01,,,0.12,151.0,meteohub,2013-07-14 16:52:00,
2013-07-14 12:57:00,69.4,61.5,30.11,SE,130,0.0,5.0,66,0.01,,,0.12,193.0,meteohub,2013-07-14 16:57:00,
2013-07-14 13:02:00,69.4,61.5,30.11,SE,132,1.0,5.0,66,0.00,,,0.12,202.0,meteohub,2013-07-14 17:02:00,
2013-07-14 13:07:00,69.3,61.5,30.11,SE,138,2.0,4.0,66,0.00,,,0.12,167.0,meteohub,2013-07-14 17:07:00,
2013-07-14 13:12:00,68.9,60.6,30.11,SE,143,3.0,9.0,64,0.00,,,0.12,251.0,meteohub,2013-07-14 17:12:00,
2013-07-14 13:17:00,68.9,61.2,30.11,SE,127,0.0,9.0,65,0.00,,,0.12,246.0,meteohub,2013-07-14 17:17:00,
2013-07-14 13:22:00,69.1,61.2,30.11,SSW,196,2.0,9.0,65,0.00,,,0.12,283.0,meteohub,2013-07-14 17:22:00,
2013-07-14 13:27:00,69.1,61.5,30.11,ESE,113,3.0,8.0,66,0.00,,,0.12,283.0,meteohub,2013-07-14 17:27:00,
2013-07-14 13:32:00,68.9,61.5,30.11,East,94,1.0,7.0,66,0.01,,,0.13,223.0,meteohub,2013-07-14 17:32:00,
2013-07-14 13:37:00,68.5,61.5,30.11,ENE,78,3.0,6.0,66,0.03,,,0.15,276.0,meteohub,2013-07-14 17:37:00,
2013-07-14 13:42:00,68.5,61.2,30.11,East,100,2.0,6.0,65,0.04,,,0.16,225.0,meteohub,2013-07-14 17:42:00,
2013-07-14 13:47:00,68.7,61.2,30.11,ESE,121,1.0,6.0,65,0.05,,,0.17,214.0,meteohub,2013-07-14 17:47:00,
2013-07-14 13:52:00,68.7,61.5,30.11,ESE,103,1.0,6.0,66,0.06,,,0.17,292.0,meteohub,2013-07-14 17:52:00,
2013-07-14 13:57:00,68.7,61.5,30.11,ESE,115,8.0,14.0,66,0.07,,,0.19,216.0,meteohub,2013-07-14 17:57:00,
2013-07-14 14:02:00,68.7,61.5,30.11,ESE,103,3.0,14.0,66,0.07,,,0.19,135.0,meteohub,2013-07-14 18:02:00,
2013-07-14 14:07:00,68.7,61.5,30.11,SE,142,8.0,14.0,66,0.07,,,0.19,211.0,meteohub,2013-07-14 18:07:00,
2013-07-14 14:12:00,68.7,60.6,30.11,SE,134,1.0,11.0,64,0.07,,,0.19,278.0,meteohub,2013-07-14 18:12:00,
2013-07-14 14:17:00,68.9,60.6,30.11,SE,126,10.0,13.0,64,0.07,,,0.19,445.0,meteohub,2013-07-14 18:17:00,
2013-07-14 14:22:00,69.1,61.2,30.12,ESE,117,14.0,14.0,65,0.08,,,0.20,246.0,meteohub,2013-07-14 18:22:00,
2013-07-14 14:27:00,69.3,61.5,30.12,SE,132,4.0,21.0,66,0.08,,,0.20,225.0,meteohub,2013-07-14 18:27:00,
2013-07-14 14:32:00,69.3,61.5,30.12,SSE,162,6.0,21.0,66,0.06,,,0.20,206.0,meteohub,2013-07-14 18:32:00,
2013-07-14 14:37:00,69.3,61.5,30.12,ESE,104,0.0,18.0,66,0.04,,,0.20,236.0,meteohub,2013-07-14 18:37:00,
2013-07-14 14:42:00,69.4,61.5,30.12,SSE,159,2.0,11.0,66,0.03,,,0.20,192.0,meteohub,2013-07-14 18:42:00,
2013-07-14 14:47:00,69.4,61.2,30.12,SE,132,5.0,11.0,65,0.03,,,0.20,325.0,meteohub,2013-07-14 18:47:00,
2013-07-14 14:52:00,69.6,61.2,30.12,SSE,161,4.0,10.0,65,0.02,,,0.20,366.0,meteohub,2013-07-14 18:52:00,
2013-07-14 14:57:00,70.0,61.2,30.12,SSE,148,4.0,10.0,65,0.01,,,0.20,193.0,meteohub,2013-07-14 18:57:00,
2013-07-14 15:02:00,69.6,61.5,30.12,SSE,157,5.0,12.0,66,0.01,,,0.20,146.0,meteohub,2013-07-14 19:02:00,
2013-07-14 15:07:00,69.3,61.5,30.12,SE,129,9.0,12.0,66,0.01,,,0.20,155.0,meteohub,2013-07-14 19:07:00,
2013-07-14 15:12:00,68.7,61.5,30.12,South,173,11.0,13.0,66,0.01,,,0.20,346.0,meteohub,2013-07-14 19:12:00,
2013-07-14 15:17:00,68.5,61.2,30.12,SE,129,4.0,16.0,65,0.01,,,0.20,483.0,meteohub,2013-07-14 19:17:00,
2013-07-14 15:22:00,68.9,61.2,30.12,ESE,118,7.0,16.0,65,0.00,,,0.20,339.0,meteohub,2013-07-14 19:22:00,
2013-07-14 15:27:00,68.9,61.2,30.12,SSE,157,4.0,16.0,65,0.00,,,0.20,260.0,meteohub,2013-07-14 19:27:00,
2013-07-14 15:32:00,69.1,61.5,30.12,South,175,2.0,12.0,66,0.00,,,0.20,236.0,meteohub,2013-07-14 19:32:00,
2013-07-14 15:37:00,69.1,61.5,30.12,ESE,105,2.0,10.0,66,0.00,,,0.20,100.0,meteohub,2013-07-14 19:37:00,
2013-07-14 15:42:00,68.7,61.5,30.12,SE,127,1.0,10.0,66,0.00,,,0.20,97.0,meteohub,2013-07-14 19:42:00,
2013-07-14 15:47:00,68.5,61.5,30.12,SE,128,9.0,10.0,66,0.00,,,0.20,149.0,meteohub,2013-07-14 19:47:00,
2013-07-14 15:52:00,68.2,61.2,30.11,ESE,109,5.0,10.0,65,0.00,,,0.20,174.0,meteohub,2013-07-14 19:52:00,
2013-07-14 15:57:00,68.5,60.6,30.11,ENE,73,2.0,10.0,64,0.00,,,0.20,216.0,meteohub,2013-07-14 19:57:00,
2013-07-14 16:02:00,69.1,61.2,30.11,ESE,103,2.0,10.0,65,0.00,,,0.20,181.0,meteohub,2013-07-14 20:02:00,
2013-07-14 16:07:00,69.6,61.5,30.11,ENE,67,5.0,9.0,66,0.00,,,0.20,204.0,meteohub,2013-07-14 20:07:00,
2013-07-14 16:12:00,70.0,61.5,30.11,ESE,112,3.0,9.0,66,0.00,,,0.20,258.0,meteohub,2013-07-14 20:12:00,
2013-07-14 16:17:00,70.3,61.5,30.11,ESE,107,3.0,9.0,66,0.00,,,0.20,258.0,meteohub,2013-07-14 20:17:00,
2013-07-14 16:22:00,70.0,61.5,30.11,East,101,6.0,16.0,66,0.00,,,0.20,229.0,meteohub,2013-07-14 20:22:00,
2013-07-14 16:27:00,69.4,61.5,30.10,East,93,5.0,16.0,66,0.00,,,0.20,135.0,meteohub,2013-07-14 20:27:00,
2013-07-14 16:32:00,69.3,60.6,30.10,ESE,110,2.0,16.0,64,0.00,,,0.20,207.0,meteohub,2013-07-14 20:32:00,
2013-07-14 16:37:00,69.3,61.2,30.11,SSE,151,2.0,14.0,65,0.00,,,0.20,153.0,meteohub,2013-07-14 20:37:00,
2013-07-14 16:42:00,68.9,61.5,30.11,SE,140,4.0,12.0,66,0.01,,,0.21,100.0,meteohub,2013-07-14 20:42:00,
2013-07-14 16:47:00,68.5,61.5,30.11,SSE,150,6.0,13.0,66,0.01,,,0.21,107.0,meteohub,2013-07-14 20:47:00,
2013-07-14 16:52:00,68.2,61.5,30.11,SSE,161,2.0,13.0,66,0.02,,,0.22,84.0,meteohub,2013-07-14 20:52:00,
2013-07-14 16:57:00,67.8,61.5,30.12,South,180,2.0,9.0,66,0.03,,,0.23,109.0,meteohub,2013-07-14 20:57:00,
2013-07-14 17:02:00,67.8,61.2,30.11,SW,215,8.0,8.0,65,0.03,,,0.23,141.0,meteohub,2013-07-14 21:02:00,
2013-07-14 17:07:00,67.5,61.2,30.11,South,187,1.0,8.0,65,0.03,,,0.23,206.0,meteohub,2013-07-14 21:07:00,
2013-07-14 17:12:00,66.9,61.5,30.11,NNW,337,0.0,8.0,66,0.04,,,0.24,260.0,meteohub,2013-07-14 21:12:00,
2013-07-14 17:17:00,67.3,61.5,30.11,South,180,0.0,8.0,66,0.04,,,0.24,281.0,meteohub,2013-07-14 21:17:00,
2013-07-14 17:22:00,67.5,61.5,30.11,NE,47,0.0,6.0,66,0.04,,,0.24,401.0,meteohub,2013-07-14 21:22:00,
2013-07-14 17:27:00,68.2,61.5,30.11,NE,45,0.0,5.0,66,0.04,,,0.24,427.0,meteohub,2013-07-14 21:27:00,
2013-07-14 17:32:00,68.9,61.5,30.12,NW,310,0.0,3.0,66,0.04,,,0.24,190.0,meteohub,2013-07-14 21:32:00,
2013-07-14 17:37:00,69.3,61.2,30.12,NW,310,0.0,3.0,65,0.04,,,0.24,139.0,meteohub,2013-07-14 21:37:00,
2013-07-14 17:42:00,68.7,61.2,30.12,WSW,240,1.0,3.0,65,0.03,,,0.24,132.0,meteohub,2013-07-14 21:42:00,
2013-07-14 17:47:00,68.5,61.5,30.12,NNW,346,0.0,3.0,66,0.02,,,0.24,148.0,meteohub,2013-07-14 21:47:00,
2013-07-14 17:52:00,68.7,61.5,30.12,South,171,2.0,4.0,66,0.02,,,0.24,135.0,meteohub,2013-07-14 21:52:00,
2013-07-14 17:57:00,68.7,61.5,30.12,SE,134,0.0,5.0,66,0.01,,,0.24,130.0,meteohub,2013-07-14 21:57:00,
2013-07-14 18:02:00,68.7,61.5,30.12,SSE,165,0.0,5.0,66,0.01,,,0.24,102.0,meteohub,2013-07-14 22:02:00,
2013-07-14 18:07:00,68.5,61.2,30.12,ESE,109,1.0,8.0,65,0.01,,,0.24,100.0,meteohub,2013-07-14 22:07:00,
2013-07-14 18:12:00,68.4,61.2,30.12,ENE,58,3.0,10.0,65,0.00,,,0.24,97.0,meteohub,2013-07-14 22:12:00,
2013-07-14 18:17:00,68.2,61.5,30.12,NE,56,2.0,10.0,66,0.00,,,0.24,93.0,meteohub,2013-07-14 22:17:00,
2013-07-14 18:22:00,68.2,61.5,30.12,SSE,157,1.0,10.0,66,0.00,,,0.24,83.0,meteohub,2013-07-14 22:22:00,
2013-07-14 18:27:00,68.2,61.5,30.12,ENE,69,2.0,7.0,66,0.00,,,0.24,111.0,meteohub,2013-07-14 22:27:00,
2013-07-14 18:32:00,68.2,61.5,30.12,East,85,5.0,7.0,66,0.00,,,0.24,134.0,meteohub,2013-07-14 22:32:00,
2013-07-14 18:37:00,68.2,60.6,30.12,ESE,105,0.0,8.0,64,0.00,,,0.24,135.0,meteohub,2013-07-14 22:37:00,
2013-07-14 18:42:00,68.4,61.2,30.12,East,96,2.0,8.0,65,0.00,,,0.24,69.0,meteohub,2013-07-14 22:42:00,
2013-07-14 18:47:00,68.4,61.2,30.12,SE,139,1.0,8.0,65,0.00,,,0.24,95.0,meteohub,2013-07-14 22:47:00,
2013-07-14 18:52:00,68.4,61.5,30.12,East,101,3.0,8.0,66,0.00,,,0.24,83.0,meteohub,2013-07-14 22:52:00,
2013-07-14 18:57:00,68.2,61.5,30.12,ENE,62,8.0,8.0,66,0.00,,,0.24,69.0,meteohub,2013-07-14 22:57:00,
2013-07-14 19:02:00,68.4,61.5,30.12,ENE,64,3.0,9.0,66,0.00,,,0.24,65.0,meteohub,2013-07-14 23:02:00,
2013-07-14 19:07:00,68.4,61.5,30.12,ESE,119,2.0,9.0,66,0.00,,,0.24,83.0,meteohub,2013-07-14 23:07:00,
2013-07-14 19:12:00,68.4,61.2,30.12,East,88,3.0,9.0,65,0.00,,,0.24,69.0,meteohub,2013-07-14 23:12:00,
2013-07-14 19:17:00,68.4,60.6,30.12,SE,125,0.0,7.0,64,0.00,,,0.24,44.0,meteohub,2013-07-14 23:17:00,
2013-07-14 19:22:00,68.4,61.2,30.12,ESE,115,0.0,6.0,65,0.00,,,0.24,33.0,meteohub,2013-07-14 23:22:00,
2013-07-14 19:27:00,68.2,61.2,30.13,ESE,114,0.0,6.0,65,0.00,,,0.24,44.0,meteohub,2013-07-14 23:27:00,
2013-07-14 19:32:00,68.0,61.5,30.13,East,89,1.0,4.0,66,0.00,,,0.24,33.0,meteohub,2013-07-14 23:32:00,
2013-07-14 19:37:00,68.0,61.5,30.13,ENE,78,2.0,4.0,66,0.00,,,0.24,37.0,meteohub,2013-07-14 23:37:00,
2013-07-14 19:42:00,68.2,61.5,30.13,ESE,104,0.0,4.0,66,0.00,,,0.24,54.0,meteohub,2013-07-14 23:42:00,
2013-07-14 19:47:00,68.2,61.5,30.13,SE,127,2.0,5.0,66,0.00,,,0.24,25.0,meteohub,2013-07-14 23:47:00,
2013-07-14 19:52:00,68.2,60.6,30.13,ESE,121,0.0,5.0,64,0.00,,,0.24,19.0,meteohub,2013-07-14 23:52:00,
2013-07-14 19:57:00,67.8,61.2,30.13,SSE,157,6.0,7.0,65,0.01,,,0.25,28.0,meteohub,2013-07-14 23:57:00,
2013-07-14 20:02:00,67.5,61.5,30.13,SSW,205,5.0,13.0,66,0.01,,,0.25,35.0,meteohub,2013-07-15 00:02:00,
2013-07-14 20:07:00,67.3,61.5,30.13,ESE,107,3.0,13.0,66,0.01,,,0.25,35.0,meteohub,2013-07-15 00:07:00,
2013-07-14 20:12:00,67.3,61.5,30.13,ENE,74,8.0,13.0,66,0.01,,,0.25,21.0,meteohub,2013-07-15 00:12:00,
2013-07-14 20:17:00,67.3,61.2,30.13,SE,139,0.0,13.0,65,0.01,,,0.25,14.0,meteohub,2013-07-15 00:17:00,
2013-07-14 20:22:00,66.9,60.6,30.14,South,169,3.0,11.0,64,0.01,,,0.25,11.0,meteohub,2013-07-15 00:22:00,
2013-07-14 20:27:00,66.7,61.2,30.14,SE,127,8.0,10.0,65,0.01,,,0.25,9.0,meteohub,2013-07-15 00:27:00,
2013-07-14 20:32:00,66.6,61.2,30.14,SSE,164,1.0,10.0,65,0.01,,,0.25,7.0,meteohub,2013-07-15 00:32:00,
2013-07-14 20:37:00,66.4,61.5,30.14,SSE,157,0.0,10.0,66,0.01,,,0.25,5.0,meteohub,2013-07-15 00:37:00,
2013-07-14 20:42:00,66.2,61.5,30.14,SE,140,0.0,8.0,66,0.01,,,0.25,0.0,meteohub,2013-07-15 00:42:00,
2013-07-14 20:47:00,66.0,61.5,30.14,SE,141,0.0,8.0,66,0.01,,,0.25,0.0,meteohub,2013-07-15 00:47:00,
2013-07-14 20:52:00,65.8,60.6,30.14,SSE,163,0.0,5.0,64,0.01,,,0.25,0.0,meteohub,2013-07-15 00:52:00,
2013-07-14 20:57:00,65.7,61.2,30.14,ESE,121,2.0,6.0,65,0.00,,,0.25,0.0,meteohub,2013-07-15 00:57:00,
2013-07-14 21:02:00,65.5,61.2,30.14,ESE,110,2.0,6.0,65,0.00,,,0.25,0.0,meteohub,2013-07-15 01:02:00,
2013-07-14 21:07:00,65.3,61.5,30.14,ESE,113,0.0,4.0,66,0.00,,,0.25,0.0,meteohub,2013-07-15 01:07:00,
2013-07-14 21:12:00,65.3,61.5,30.14,ESE,117,1.0,5.0,66,0.00,,,0.25,0.0,meteohub,2013-07-15 01:12:00,
2013-07-14 21:17:00,65.3,61.5,30.14,ESE,103,2.0,5.0,66,0.00,,,0.25,0.0,meteohub,2013-07-15 01:17:00,
2013-07-14 21:22:00,65.3,60.6,30.14,East,89,0.0,4.0,64,0.00,,,0.25,0.0,meteohub,2013-07-15 01:22:00,
2013-07-14 21:27:00,65.3,60.6,30.14,East,89,0.0,4.0,64,0.00,,,0.25,0.0,meteohub,2013-07-15 01:27:00,
2013-07-14 21:32:00,65.3,61.2,30.14,SE,133,0.0,2.0,65,0.00,,,0.25,0.0,meteohub,2013-07-15 01:32:00,
2013-07-14 21:37:00,65.3,61.5,30.14,ESE,109,1.0,4.0,66,0.00,,,0.25,0.0,meteohub,2013-07-15 01:37:00,
2013-07-14 21:42:00,65.5,61.5,30.14,SSE,165,0.0,4.0,66,0.00,,,0.25,0.0,meteohub,2013-07-15 01:42:00,
2013-07-14 21:47:00,65.7,61.5,30.15,East,98,1.0,4.0,66,0.00,,,0.25,0.0,meteohub,2013-07-15 01:47:00,
2013-07-14 21:52:00,65.8,61.5,30.15,ESE,121,0.0,7.0,66,0.00,,,0.25,0.0,meteohub,2013-07-15 01:52:00,
2013-07-14 21:57:00,66.0,60.6,30.15,ESE,109,0.0,7.0,64,0.00,,,0.25,0.0,meteohub,2013-07-15 01:57:00,
2013-07-14 22:02:00,66.2,60.6,30.15,ENE,66,2.0,7.0,64,0.00,,,0.25,0.0,meteohub,2013-07-15 02:02:00,
2013-07-14 22:07:00,66.4,61.2,30.15,ESE,117,2.0,5.0,65,0.00,,,0.25,0.0,meteohub,2013-07-15 02:07:00,
2013-07-14 22:12:00,66.6,61.2,30.15,ESE,105,0.0,5.0,65,0.00,,,0.25,0.0,meteohub,2013-07-15 02:12:00,
2013-07-14 22:17:00,66.6,61.5,30.15,ESE,105,0.0,5.0,66,0.00,,,0.25,0.0,meteohub,2013-07-15 02:17:00,
2013-07-14 22:22:00,66.6,61.5,30.16,SE,125,0.0,5.0,66,0.00,,,0.25,0.0,meteohub,2013-07-15 02:22:00,
2013-07-14 22:27:00,66.4,61.5,30.15,SE,136,0.0,2.0,66,0.00,,,0.25,0.0,meteohub,2013-07-15 02:27:00,
2013-07-14 22:32:00,66.4,61.5,30.16,ESE,107,0.0,4.0,66,0.00,,,0.25,0.0,meteohub,2013-07-15 02:32:00,
2013-07-14 22:37:00,66.2,60.6,30.16,ESE,111,1.0,4.0,64,0.00,,,0.25,0.0,meteohub,2013-07-15 02:37:00,
2013-07-14 22:42:00,66.4,60.6,30.16,ENE,70,2.0,4.0,64,0.00,,,0.25,0.0,meteohub,2013-07-15 02:42:00,
2013-07-14 22:47:00,66.6,61.2,30.16,East,96,2.0,7.0,65,0.00,,,0.25,0.0,meteohub,2013-07-15 02:47:00,
2013-07-14 22:52:00,66.6,61.2,30.16,ESE,119,0.0,7.0,65,0.00,,,0.25,0.0,meteohub,2013-07-15 02:52:00,
2013-07-14 22:57:00,66.6,61.5,30.16,ESE,115,0.0,6.0,66,0.00,,,0.25,0.0,meteohub,2013-07-15 02:57:00,
2013-07-14 23:02:00,66.7,61.5,30.16,ESE,122,1.0,4.0,66,0.00,,,0.25,0.0,meteohub,2013-07-15 03:02:00,
2013-07-14 23:07:00,66.9,61.5,30.16,ESE,113,2.0,8.0,66,0.00,,,0.25,0.0,meteohub,2013-07-15 03:07:00,
2013-07-14 23:12:00,67.3,61.5,30.16,ESE,119,1.0,8.0,66,0.00,,,0.25,0.0,meteohub,2013-07-15 03:12:00,
2013-07-14 23:17:00,67.5,60.6,30.16,ESE,103,0.0,8.0,64,0.00,,,0.25,0.0,meteohub,2013-07-15 03:17:00,
2013-07-14 23:22:00,67.5,60.6,30.16,SE,137,0.0,4.0,64,0.00,,,0.25,0.0,meteohub,2013-07-15 03:22:00,
2013-07-14 23:27:00,67.5,61.2,30.16,ESE,121,0.0,4.0,65,0.00,,,0.25,0.0,meteohub,2013-07-15 03:27:00,
2013-07-14 23:32:00,67.5,61.5,30.15,SE,132,3.0,4.0,66,0.00,,,0.25,0.0,meteohub,2013-07-15 03:32:00,
2013-07-14 23:37:00,67.5,61.5,30.15,SE,132,0.0,4.0,66,0.00,,,0.25,0.0,meteohub,2013-07-15 03:37:00,
2013-07-14 23:42:00,67.5,61.5,30.15,SE,132,0.0,3.0,66,0.00,,,0.25,0.0,meteohub,2013-07-15 03:42:00,
2013-07-14 23:47:00,67.5,61.5,30.15,ESE,113,1.0,3.0,66,0.00,,,0.25,0.0,meteohub,2013-07-15 03:47:00,
2013-07-14 23:52:00,67.3,61.5,30.16,ESE,104,0.0,2.0,66,0.00,,,0.25,0.0,meteohub,2013-07-15 03:52:00,
2013-07-14 23:57:00,67.3,60.6,30.16,SE,130,1.0,4.0,64,0.00,,,0.25,0.0,meteohub,2013-07-15 03:57:00,